TimeCST,TemperatureF,Dew PointF,Humidity,Sea Level PressureIn,VisibilityMPH,Wind Direction,Wind SpeedMPH,Gust SpeedMPH,PrecipitationIn,Events,Conditions,WindDirDegrees,DateUTC
12:15 AM,30.2,24.8,80,30.17,10.0,SE,5.8,-,N/A,,Clear,130,2013-11-08 06:15:00
12:35 AM,30.2,24.8,80,30.16,10.0,ESE,4.6,-,N/A,,Clear,110,2013-11-08 06:35:00
12:55 AM,30.2,23.0,75,30.15,10.0,East,3.5,-,N/A,,Clear,100,2013-11-08 06:55:00
1:15 AM,28.4,23.0,80,30.14,10.0,Calm,Calm,-,N/A,,Clear,0,2013-11-08 07:15:00
1:35 AM,28.4,23.0,80,30.13,10.0,East,4.6,-,N/A,,Clear,80,2013-11-08 07:35:00
1:55 AM,30.2,24.8,80,30.12,10.0,Calm,Calm,-,N/A,,Clear,0,2013-11-08 07:55:00
2:15 AM,30.2,24.8,80,30.11,10.0,ESE,5.8,-,N/A,,Clear,110,2013-11-08 08:15:00
2:35 AM,33.8,24.8,70,30.09,10.0,East,5.8,-,N/A,,Clear,100,2013-11-08 08:35:00
2:55 AM,33.8,26.6,75,30.07,10.0,ESE,8.1,-,N/A,,Clear,110,2013-11-08 08:55:00
3:15 AM,35.6,26.6,70,30.06,10.0,ESE,8.1,-,N/A,,Partly Cloudy,120,2013-11-08 09:15:00
3:35 AM,35.6,28.4,75,30.05,10.0,ESE,8.1,-,N/A,,Scattered Clouds,120,2013-11-08 09:35:00
3:55 AM,35.6,28.4,75,30.03,10.0,SE,11.5,-,N/A,,Partly Cloudy,140,2013-11-08 09:55:00
4:15 AM,37.4,28.4,70,30.02,10.0,ESE,12.7,-,N/A,,Partly Cloudy,120,2013-11-08 10:15:00
4:35 AM,37.4,28.4,70,30.00,10.0,SE,12.7,-,N/A,,Clear,130,2013-11-08 10:35:00
4:55 AM,37.4,28.4,70,29.99,10.0,ESE,11.5,-,N/A,,Partly Cloudy,120,2013-11-08 10:55:00
5:15 AM,37.4,28.4,70,29.97,10.0,SE,12.7,-,N/A,,Clear,130,2013-11-08 11:15:00
5:35 AM,37.4,28.4,70,29.96,10.0,SE,12.7,-,N/A,,Clear,140,2013-11-08 11:35:00
5:55 AM,37.4,28.4,70,29.94,10.0,SE,15.0,20.7,N/A,,Clear,140,2013-11-08 11:55:00
6:15 AM,37.4,28.4,70,29.92,10.0,SE,15.0,23.0,N/A,,Clear,140,2013-11-08 12:15:00
6:35 AM,37.4,28.4,70,29.91,10.0,SE,15.0,-,N/A,,Clear,140,2013-11-08 12:35:00
6:55 AM,37.4,28.4,70,29.89,10.0,SE,16.1,-,N/A,,Clear,140,2013-11-08 12:55:00
7:15 AM,37.4,28.4,70,29.88,10.0,SSE,17.3,-,N/A,,Clear,150,2013-11-08 13:15:00
7:35 AM,37.4,28.4,70,29.86,10.0,SE,19.6,23.0,N/A,,Clear,140,2013-11-08 13:35:00
7:55 AM,37.4,28.4,70,29.85,10.0,SE,19.6,23.0,N/A,,Clear,140,2013-11-08 13:55:00
8:15 AM,37.4,28.4,70,29.83,10.0,SSE,24.2,28.8,N/A,,Clear,150,2013-11-08 14:15:00
8:35 AM,37.4,28.4,70,29.83,10.0,SSE,19.6,-,N/A,,Clear,150,2013-11-08 14:35:00
8:55 AM,39.2,28.4,65,29.81,10.0,SE,18.4,25.3,N/A,,Clear,140,2013-11-08 14:55:00
9:15 AM,39.2,30.2,70,29.80,10.0,SSE,17.3,25.3,N/A,,Clear,150,2013-11-08 15:15:00
9:35 AM,41.0,30.2,65,29.78,10.0,SSE,19.6,25.3,N/A,,Clear,160,2013-11-08 15:35:00
9:55 AM,42.8,30.2,61,29.77,10.0,SSE,19.6,26.5,N/A,,Clear,160,2013-11-08 15:55:00
10:15 AM,42.8,30.2,61,29.76,10.0,SSE,17.3,24.2,N/A,,Clear,160,2013-11-08 16:15:00
10:35 AM,44.6,33.8,66,29.73,10.0,SSE,16.1,21.9,N/A,,Clear,160,2013-11-08 16:35:00
10:55 AM,46.4,33.8,62,29.73,10.0,South,13.8,20.7,N/A,,Clear,170,2013-11-08 16:55:00
11:15 AM,46.4,33.8,62,29.73,10.0,SSW,20.7,31.1,N/A,,Clear,200,2013-11-08 17:15:00
11:35 AM,48.2,35.6,62,29.71,10.0,South,19.6,27.6,N/A,,Clear,180,2013-11-08 17:35:00
11:55 AM,48.2,35.6,62,29.69,10.0,South,16.1,-,N/A,,Clear,170,2013-11-08 17:55:00
12:15 PM,50.0,35.6,58,29.67,10.0,SSE,17.3,21.9,N/A,,Clear,160,2013-11-08 18:15:00
12:35 PM,50.0,35.6,58,29.65,10.0,South,17.3,26.5,N/A,,Clear,170,2013-11-08 18:35:00
12:55 PM,51.8,37.4,58,29.65,10.0,South,16.1,24.2,N/A,,Clear,190,2013-11-08 18:55:00
1:15 PM,51.8,37.4,58,29.65,10.0,SSW,16.1,20.7,N/A,,Clear,200,2013-11-08 19:15:00
1:35 PM,51.8,37.4,58,29.65,10.0,South,13.8,-,N/A,,Clear,190,2013-11-08 19:35:00
1:55 PM,51.8,37.4,58,29.63,10.0,South,12.7,24.2,N/A,,Clear,190,2013-11-08 19:55:00
2:15 PM,53.6,39.2,58,29.64,10.0,SSW,12.7,18.4,N/A,,Clear,200,2013-11-08 20:15:00
2:35 PM,53.6,39.2,58,29.64,10.0,SSW,12.7,19.6,N/A,,Clear,210,2013-11-08 20:35:00
2:55 PM,53.6,39.2,58,29.65,10.0,SSW,16.1,-,N/A,,Clear,210,2013-11-08 20:55:00
3:15 PM,55.4,39.2,54,29.66,10.0,SW,13.8,-,N/A,,Clear,220,2013-11-08 21:15:00
3:35 PM,55.4,39.2,54,29.67,10.0,WSW,9.2,-,N/A,,Clear,240,2013-11-08 21:35:00
3:55 PM,55.4,39.2,54,29.68,10.0,WNW,16.1,23.0,N/A,,Clear,290,2013-11-08 21:55:00
4:15 PM,53.6,39.2,58,29.67,10.0,West,13.8,-,N/A,,Clear,280,2013-11-08 22:15:00
4:35 PM,53.6,41.0,62,29.69,10.0,West,13.8,-,N/A,,Clear,270,2013-11-08 22:35:00
4:55 PM,53.6,41.0,62,29.70,10.0,West,10.4,-,N/A,,Clear,270,2013-11-08 22:55:00
5:15 PM,51.8,39.2,62,29.72,10.0,West,8.1,-,N/A,,Clear,270,2013-11-08 23:15:00
5:35 PM,51.8,39.2,62,29.74,10.0,West,15.0,23.0,N/A,,Partly Cloudy,270,2013-11-08 23:35:00
5:55 PM,51.8,37.4,58,29.74,10.0,West,11.5,-,N/A,,Clear,270,2013-11-08 23:55:00
6:15 PM,50.0,37.4,62,29.76,10.0,West,10.4,-,N/A,,Clear,260,2013-11-09 00:15:00
6:35 PM,48.2,37.4,66,29.76,10.0,SW,9.2,-,N/A,,Clear,230,2013-11-09 00:35:00
6:55 PM,46.4,37.4,71,29.77,10.0,WSW,9.2,-,N/A,,Clear,240,2013-11-09 00:55:00
7:15 PM,46.4,37.4,71,29.78,10.0,West,15.0,-,N/A,,Clear,260,2013-11-09 01:15:00
7:35 PM,48.2,35.6,62,29.79,10.0,West,21.9,-,N/A,,Clear,270,2013-11-09 01:35:00
7:55 PM,48.2,35.6,62,29.79,10.0,West,20.7,25.3,N/A,,Clear,270,2013-11-09 01:55:00
8:15 PM,48.2,35.6,62,29.79,10.0,West,15.0,-,N/A,,Mostly Cloudy,260,2013-11-09 02:15:00
8:35 PM,48.2,35.6,62,29.80,10.0,West,13.8,18.4,N/A,,Scattered Clouds,260,2013-11-09 02:35:00
8:55 PM,46.4,35.6,66,29.80,10.0,WSW,9.2,-,N/A,,Clear,250,2013-11-09 02:55:00
9:15 PM,46.4,33.8,62,29.81,10.0,WSW,11.5,-,N/A,,Clear,250,2013-11-09 03:15:00
9:35 PM,46.4,33.8,62,29.81,10.0,WSW,10.4,-,N/A,,Clear,250,2013-11-09 03:35:00
9:55 PM,46.4,33.8,62,29.81,10.0,WSW,11.5,-,N/A,,Mostly Cloudy,240,2013-11-09 03:55:00
10:15 PM,46.4,33.8,62,29.81,10.0,WSW,13.8,-,N/A,,Scattered Clouds,240,2013-11-09 04:15:00
10:35 PM,46.4,33.8,62,29.82,10.0,WSW,13.8,-,N/A,,Clear,240,2013-11-09 04:35:00
10:55 PM,46.4,33.8,62,29.82,10.0,WSW,16.1,20.7,N/A,,Clear,250,2013-11-09 04:55:00
11:15 PM,46.4,33.8,62,29.83,10.0,WSW,15.0,20.7,N/A,,Clear,250,2013-11-09 05:15:00
11:35 PM,48.2,32.0,54,29.83,10.0,WSW,18.4,-,N/A,,Clear,250,2013-11-09 05:35:00
11:55 PM,48.2,32.0,54,29.84,10.0,West,18.4,27.6,N/A,,Clear,260,2013-11-09 05:55:00